Flag for Belgium Weather past 2 weeks in Kortrijk, Belgium

Now
84 °F

Passing clouds.


Feels Like: 82 °F
Forecast: 65 / 92 °F
Wind: 8 mph from East

Location: Lille Airport

Current Time: Jun 30, 2015 at 7:04:23 PM

Latest Report: Jun 30, 2015 at 6:30 PM


Visibility: N/A

Pressure: 30.04 "Hg

Humidity: 29%

Dew point: 48 °F

Location of KortrijkLocation

Historic Weather in Kortrijk — Graph

°F

Kortrijk temperature yesterday

Maximum temperature yesterday: 79 °F (at 5:00 PM)
Minimum temperature yesterday: 59 °F (at 3:30 AM)
Average temperature yesterday: 68 °F

Past Weeks' High & Low Weather Summary

 TemperatureHumidityPressure
High84 °F (Jun 30, 4:00 PM)100% (Jun 21, 3:30 AM)30.30 "Hg (Jun 21, 3:30 AM)
Low46 °F (Jun 24, 5:30 AM)29% (Jun 30, 4:00 PM)29.74 "Hg (Jun 22, 5:30 PM)
Average63 °F67%30.11 "Hg
* Reported Jun 15 6:00 PM — Jun 30 6:00 PM, Kortrijk, Weather by CustomWeather, © 2015

Note: Actual official high and low records may vary slightly from our data, if they occured in-between our weather recording intervals... More about our weather records

Advertising

Kortrijk weather history for previous 24 hours

 ConditionsComfort  
Time TempWeatherWind HumidityBarometerVisibility
6:00 PM
Tue, Jun 30
84 °FPassing clouds.7 mph31%30.04 "HgN/A
5:00 PM84 °FPassing clouds.8 mph31%30.07 "HgN/A
4:30 PM84 °FPassing clouds.7 mph29%30.07 "HgN/A
4:00 PM84 °FPassing clouds.8 mph29%30.07 "HgN/A
3:00 PM82 °FPassing clouds.6 mph30%30.09 "HgN/A
2:30 PM82 °FPassing clouds.8 mph32%30.09 "HgN/A
2:00 PM81 °FPassing clouds.9 mph34%30.09 "HgN/A
1:30 PM81 °FPassing clouds.8 mph34%30.12 "HgN/A
1:00 PM79 °FPassing clouds.8 mph34%30.12 "HgN/A
12:30 PM79 °FPassing clouds.8 mph39%30.12 "HgN/A
12:00 PM77 °FPassing clouds.7 mph44%30.12 "HgN/A
11:30 AM77 °FPassing clouds.8 mph47%30.15 "HgN/A
11:00 AM75 °FPassing clouds.6 mph50%30.15 "HgN/A
10:30 AM73 °FPassing clouds.6 mph53%30.15 "HgN/A
10:00 AM72 °FPassing clouds.5 mph57%30.15 "HgN/A
9:30 AM70 °FPassing clouds.3 mph60%30.15 "HgN/A
9:00 AM68 °FPassing clouds.3 mph64%30.15 "HgN/A
8:30 AM66 °FPassing clouds.3 mph68%30.15 "HgN/A
8:00 AM64 °FSunny.3 mph73%30.15 "Hg10 mi
7:30 AM63 °FSunny.3 mph73%30.15 "Hg10 mi
7:00 AM61 °FSunny.3 mph77%30.15 "Hg10 mi
6:30 AM57 °FClear.2 mph88%30.15 "Hg10 mi
6:00 AM57 °FClear.3 mph82%30.15 "Hg10 mi
5:00 AM57 °FClear.No wind82%30.15 "Hg10 mi
4:30 AM59 °FClear.2 mph77%30.15 "Hg10 mi
4:00 AM59 °FClear.2 mph82%30.15 "Hg10 mi
3:30 AM59 °FClear.1 mph77%30.18 "Hg10 mi
3:00 AM61 °FClear.2 mph77%30.18 "Hg10 mi
2:30 AM61 °FClear.2 mph77%30.18 "Hg10 mi
2:00 AM61 °FClear.3 mph77%30.18 "Hg10 mi
1:30 AM61 °FClear.2 mph77%30.18 "Hg10 mi
1:00 AM63 °FClear.2 mph73%30.18 "Hg10 mi
12:30 AM63 °FClear.3 mph73%30.18 "Hg10 mi
11:30 PM
Mon, Jun 29
64 °FClear.2 mph68%30.21 "Hg10 mi
11:00 PM66 °FSunny.5 mph64%30.21 "Hg10 mi
10:30 PM68 °FSunny.5 mph60%30.21 "Hg10 mi
10:00 PM68 °FSunny.6 mph64%30.21 "Hg10 mi
9:30 PM70 °FPassing clouds.7 mph60%30.21 "HgN/A
9:00 PM72 °FPassing clouds.7 mph57%30.18 "HgN/A
8:30 PM72 °FPassing clouds.8 mph57%30.18 "HgN/A
8:00 PM73 °FPassing clouds.9 mph53%30.18 "HgN/A
7:30 PM77 °FPassing clouds.5 mph47%30.18 "HgN/A
7:00 PM77 °FPassing clouds.7 mph42%30.18 "HgN/A
Weather by CustomWeather, © 2015

See weather overviewHow to use our weather pages